Date,TemperatureHighF,TemperatureAvgF,TemperatureLowF,DewpointHighF,DewpointAvgF,DewpointLowF,HumidityHigh,HumidityAvg,HumidityLow,PressureMaxIn,PressureMinIn,WindSpeedMaxMPH,WindSpeedAvgMPH,GustSpeedMaxMPH,PrecipitationSumIn
2013-1-1,35,32,29,34,30,26,98,91,84,30.36,30.11,10,2,14,0.00
2013-1-2,42,32,24,29,26,21,92,80,56,30.39,30.29,5,1,9,0.00
2013-1-3,46,31,22,30,24,20,95,76,45,30.54,30.39,10,1,12,0.00
2013-1-4,46,36,25,32,28,22,92,73,51,30.58,30.39,8,1,10,0.00
2013-1-5,52,39,26,37,32,23,95,78,51,30.39,30.22,11,2,14,0.00
2013-1-6,54,37,24,28,23,17,94,60,30,30.47,30.35,9,2,12,0.00
2013-1-7,52,36,18,32,26,16,93,70,41,30.39,30.15,12,1,15,0.00
2013-1-8,50,43,33,46,39,29,97,85,68,30.18,30.04,6,1,10,0.10
2013-1-9,53,50,46,52,49,45,97,97,95,30.26,30.06,11,4,16,0.53
2013-1-10,56,52,47,54,51,45,98,94,88,30.06,29.86,7,3,14,0.16
2013-1-11,71,57,45,56,48,42,93,76,47,29.92,29.72,12,5,21,0.00
2013-1-12,60,43,30,56,34,22,92,74,41,30.05,29.75,15,7,22,0.86
2013-1-13,35,28,23,23,18,15,78,66,49,30.41,30.01,16,7,23,0.00
2013-1-14,41,29,22,18,15,13,74,58,36,30.48,30.31,13,4,14,0.00
2013-1-15,35,28,22,22,19,16,81,69,49,30.33,30.25,10,2,13,0.00
2013-1-16,48,32,15,23,18,12,89,60,30,30.33,30.21,6,1,12,0.00
2013-1-17,57,40,28,33,28,19,83,63,36,30.55,30.30,12,3,18,0.00
2013-1-18,60,42,22,34,29,20,95,66,36,30.56,30.27,11,3,17,0.00
2013-1-19,65,49,38,40,36,33,89,62,36,30.26,30.13,8,2,12,0.00
2013-1-20,68,46,27,47,37,25,97,74,38,30.25,30.10,7,1,13,0.00
2013-1-21,48,37,27,39,20,14,75,53,35,30.39,30.21,13,5,18,0.00
2013-1-22,60,42,21,44,30,17,88,65,38,30.35,30.22,7,1,10,0.00
2013-1-23,73,53,33,55,45,31,95,77,46,30.27,30.12,10,1,12,0.00
2013-1-24,59,47,40,51,44,35,97,88,64,30.20,30.09,6,1,11,0.00
2013-1-25,51,40,32,38,34,28,94,78,60,30.28,30.11,11,3,12,0.00
2013-1-26,47,41,31,45,40,29,97,94,87,30.27,30.11,6,1,11,0.01
2013-1-27,69,56,44,60,53,43,98,89,72,30.12,29.90,16,4,19,0.00
2013-1-28,75,68,63,65,63,59,94,82,68,29.98,29.76,13,6,20,0.00
2013-1-29,73,62,47,65,54,31,96,76,48,29.77,29.43,14,5,30,0.21
2013-1-30,48,41,30,42,27,19,85,61,37,30.14,29.64,15,4,22,0.00
2013-1-31,63,41,20,31,24,17,91,57,26,30.42,30.11,14,3,20,0.00
2013-2-1,54,36,21,31,21,9,84,57,37,30.46,30.19,10,2,17,0.00
2013-2-2,62,44,27,36,31,24,92,64,35,30.36,30.18,14,2,19,0.00
2013-2-3,63,48,29,38,31,25,91,57,32,30.36,29.98,6,2,13,0.00
2013-2-4,70,59,46,51,42,30,75,53,36,29.98,29.80,11,3,20,0.00
2013-2-5,59,52,43,56,50,35,97,93,67,30.05,29.91,5,1,5,0.00
2013-2-6,62,54,50,61,53,50,98,97,92,30.05,29.87,11,3,18,0.02
2013-2-7,72,57,44,59,52,39,98,84,44,30.16,29.82,18,5,25,0.02
2013-2-8,58,44,34,39,31,-100,85,64,33,30.32,30.16,9,-8,13,0.00
2013-2-9,52,44,37,51,40,32,97,87,77,30.17,29.73,11,4,23,0.03
2013-2-10,63,53,38,56,34,24,98,54,24,30.06,29.70,10,3,16,0.14
2013-2-11,58,47,37,33,28,26,75,51,32,30.23,30.07,11,3,13,0.00
2013-2-12,42,39,35,40,37,31,96,92,75,30.10,29.93,11,3,17,0.85
2013-2-13,57,42,33,39,32,26,94,72,34,30.17,30.03,6,1,11,0.00
2013-2-14,66,45,27,37,25,-100,100,56,21,30.22,30.03,16,-30,16,0.00
2013-2-15,49,39,26,37,21,-100,75,53,34,30.43,30.23,14,-16,20,0.00
2013-2-16,53,36,28,30,10,-100,93,51,35,30.46,30.16,12,-114,12,0.00
2013-2-17,73,48,30,40,14,-100,91,39,19,30.16,29.82,18,-131,25,0.00
2013-2-18,66,49,38,53,22,-100,82,49,34,30.16,29.70,15,-112,24,0.00
2013-2-19,57,39,29,31,8,-100,84,44,27,30.37,30.16,11,-135,11,0.00
2013-2-20,45,32,34,37,12,-100,95,71,48,30.24,29.88,14,-156,16,0.35
2013-2-21,54,34,30,43,11,-100,96,65,57,30.02,29.66,13,-174,18,0.02
2013-2-22,43,28,24,25,6,-100,82,56,46,30.22,30.02,16,-122,17,0.00
2013-2-23,50,31,22,31,9,-100,87,59,45,30.18,29.96,6,-124,8,0.00
2013-2-24,66,44,31,42,19,-100,91,53,40,29.97,29.68,14,-121,23,0.00
2013-2-25,50,35,35,42,15,-100,95,73,65,29.71,29.45,16,-163,19,0.11
2013-2-26,53,35,32,34,7,-100,87,53,41,29.95,29.67,12,-176,20,0.00
2013-2-27,52,35,32,30,11,-100,86,54,30,30.28,29.93,14,-123,21,0.00
2013-2-28,54,36,29,30,12,-100,87,53,35,30.32,30.23,18,-111,21,0.00
2013-3-1,48,32,24,32,10,-100,91,61,52,30.38,30.26,12,-124,16,0.00
2013-3-2,53,34,23,28,10,-100,90,54,38,30.48,30.26,7,-114,12,0.00
2013-3-3,70,47,26,37,16,-100,90,42,30,30.25,29.68,15,-120,23,0.00
2013-3-4,78,58,45,44,28,-100,80,40,28,29.90,29.58,26,-78,31,0.00
2013-3-5,52,38,30,38,7,-100,76,41,28,30.42,29.91,23,-119,35,0.00
2013-3-6,56,38,26,24,7,-100,81,40,23,30.51,30.23,7,-114,8,0.00
2013-3-7,70,50,32,33,14,-100,70,33,21,30.24,30.08,13,-102,22,0.00
2013-3-8,61,50,52,55,31,-100,89,65,42,30.15,29.94,18,-109,21,0.00
2013-3-9,66,48,54,62,28,-100,97,75,82,29.95,29.63,13,-184,20,0.46
2013-3-10,56,38,32,53,15,-100,97,61,57,30.12,29.68,9,-140,21,0.03
2013-3-11,59,36,28,29,10,-100,90,51,25,30.16,30.03,6,-115,12,0.00
2013-3-12,62,43,33,38,16,-100,78,48,32,30.37,30.06,8,-114,18,0.00
2013-3-13,64,43,31,35,17,-100,87,49,30,30.50,30.33,7,-106,17,0.00
2013-3-14,79,54,35,47,26,-100,87,47,28,30.35,30.14,10,-102,15,0.00
2013-3-15,84,60,54,51,28,-100,74,42,27,30.14,29.80,14,-120,20,0.00
2013-3-16,81,62,57,58,36,-100,79,49,40,29.80,29.65,11,-100,16,0.00
2013-3-17,60,45,42,54,28,-100,88,66,59,29.81,29.67,11,-103,15,0.00
2013-3-18,64,46,41,44,25,-100,93,59,35,30.05,29.66,13,-96,18,0.00
2013-3-19,61,46,35,40,21,-100,93,51,30,30.20,30.02,10,-94,15,0.00
2013-3-20,62,46,35,37,15,-100,82,41,26,30.36,30.06,9,-118,13,0.00
2013-3-21,66,46,44,48,22,-100,74,53,47,30.05,29.56,17,-112,25,0.06
2013-3-22,48,39,38,41,24,-100,90,73,72,29.91,29.62,14,-105,20,0.00
2013-3-23,46,38,40,45,23,-100,95,80,86,29.91,29.71,12,-134,17,0.13
2013-3-24,48,34,32,37,7,-100,91,49,32,30.25,29.91,21,-142,24,0.00
2013-3-25,47,33,24,23,7,-100,76,44,27,30.45,30.25,18,-79,22,0.00
2013-3-26,57,36,19,26,9,-100,84,44,25,30.55,30.32,7,-84,11,0.00
2013-3-27,69,50,35,41,20,-100,65,40,32,30.32,30.07,17,-89,27,0.00
2013-3-28,70,54,49,55,34,-100,83,61,57,30.19,30.05,13,-102,24,0.00
2013-3-29,74,59,56,59,40,-100,92,66,56,30.13,29.96,20,-106,32,0.09
2013-3-30,79,61,55,63,42,-100,95,66,56,30.02,29.84,17,-103,30,0.01
2013-3-31,71,56,48,61,36,-100,96,62,40,30.00,29.80,18,-94,34,0.40
2013-4-1,78,57,43,51,33,-100,92,52,30,30.10,29.97,11,-82,13,0.00
2013-4-2,56,40,41,49,25,-100,95,78,68,30.10,29.99,12,-126,17,0.52
2013-4-3,42,30,38,40,4,-100,100,69,82,30.23,30.06,12,-244,16,0.55
2013-4-4,52,35,38,42,10,-100,100,66,69,30.26,30.17,10,-210,12,0.02
2013-4-5,67,48,34,48,32,-100,97,67,47,30.28,30.00,10,-67,13,0.00
2013-4-6,77,60,55,57,40,-100,81,60,43,30.01,29.80,14,-68,20,0.00
2013-4-7,70,60,56,62,47,-100,94,77,73,29.86,29.68,12,-72,25,0.00
2013-4-8,79,64,63,65,48,-100,87,70,60,29.70,29.61,16,-81,23,0.00
2013-4-9,79,62,45,66,42,-100,85,66,63,29.78,29.59,21,-113,26,0.00
2013-4-10,44,34,32,39,20,-100,93,77,72,30.04,29.76,17,-100,26,0.37
2013-4-11,58,40,32,36,21,-100,92,60,42,30.05,29.85,9,-83,12,0.00
2013-4-12,70,49,34,45,30,-100,96,60,37,30.06,29.87,15,-69,15,0.00
2013-4-13,76,60,48,51,35,-100,75,49,33,30.01,29.75,16,-68,19,0.00
2013-4-14,82,65,56,64,46,-100,84,60,51,29.76,29.49,14,-60,24,0.00
2013-4-15,87,71,60,69,54,-100,97,66,52,29.71,29.54,17,-62,18,0.00
2013-4-16,82,68,66,68,53,-100,89,72,61,29.88,29.71,6,-73,16,0.00
2013-4-17,81,70,71,70,55,-100,92,71,63,29.84,29.52,20,-69,32,0.00
2013-4-18,76,41,35,69,16,-100,93,61,53,30.18,29.54,18,-151,26,0.10
2013-4-19,63,45,33,34,21,-100,88,49,28,30.30,30.14,9,-61,17,0.00
2013-4-20,70,54,35,38,28,-100,90,44,24,30.18,30.01,25,-37,25,0.00
2013-4-21,69,56,48,50,35,-100,74,54,48,30.20,30.07,13,-60,22,0.00
2013-4-22,77,61,46,59,43,-100,90,62,51,30.11,29.79,19,-58,23,0.00
2013-4-23,66,41,37,58,25,-100,93,75,75,30.25,29.78,16,-112,20,0.00
2013-4-24,60,42,32,33,19,-100,85,53,31,30.38,30.25,10,-81,20,0.00
2013-4-25,71,51,29,45,28,-100,95,53,24,30.39,30.16,11,-51,15,0.00
2013-4-26,72,58,56,64,40,-100,89,67,54,30.21,29.94,13,-91,20,0.01
2013-4-27,70,58,51,64,46,-100,94,74,59,30.13,29.94,15,-59,17,0.00
2013-4-28,84,63,44,62,46,-100,97,66,34,30.05,29.84,8,-51,12,0.00
2013-4-29,88,70,54,64,51,-100,98,60,30,29.87,29.74,12,-38,22,0.00
2013-4-30,84,68,58,62,50,-100,93,61,44,29.80,29.71,11,-59,20,0.00
2013-5-1,84,67,54,67,55,-100,93,74,49,30.06,29.76,11,-39,20,0.00
2013-5-2,53,41,38,47,29,-100,91,76,73,30.41,30.07,21,-54,26,0.03
2013-5-3,64,46,30,36,25,-100,92,56,24,30.41,30.06,20,-39,25,0.00
2013-5-4,66,49,32,40,26,-100,92,52,18,30.09,29.95,18,-37,24,0.00
2013-5-5,65,52,44,48,37,-100,92,65,51,30.19,30.08,12,-37,16,0.00
2013-5-6,76,57,40,53,42,-100,97,67,42,30.15,30.01,8,-40,14,0.00
2013-5-7,84,66,49,55,45,-100,94,57,30,30.09,29.91,7,-41,13,0.00
2013-5-8,86,69,58,64,47,-100,88,55,25,29.96,29.81,12,-48,23,0.20
2013-5-9,76,64,61,67,52,-100,93,75,61,29.96,29.84,11,-61,15,0.00
2013-5-10,76,64,59,63,53,-100,100,75,53,30.08,29.91,12,-39,14,0.00
2013-5-11,81,62,48,60,46,-100,97,68,34,30.22,30.08,14,-39,20,0.09
2013-5-12,79,60,43,49,34,-100,93,48,20,30.27,30.12,6,-51,14,0.01
2013-5-13,92,71,52,53,40,-100,76,37,20,30.18,30.02,9,-39,18,0.00
2013-5-14,89,73,63,59,44,-100,67,41,26,30.09,29.91,11,-58,18,0.00
2013-5-15,76,65,59,68,55,-100,97,79,55,29.96,29.73,10,-47,19,1.12
2013-5-16,68,56,60,66,41,-100,98,82,92,29.83,29.73,6,-124,14,0.27
2013-5-17,86,67,64,76,55,-100,99,82,70,29.86,29.76,8,-82,12,0.00
2013-5-18,90,78,70,75,66,-100,97,75,57,29.85,29.67,23,-27,23,0.00
2013-5-19,88,77,71,73,63,-100,81,67,60,29.76,29.54,18,-35,28,0.00
2013-5-20,88,74,63,74,64,-100,94,76,61,29.74,29.59,17,-16,25,1.77
2013-5-21,68,30,57,64,-24,-100,98,42,84,29.88,29.71,9,-531,30,0.85
2013-5-22,84,68,48,64,49,-100,100,62,41,29.96,29.85,7,-71,12,0.01
2013-5-23,85,66,58,70,50,-100,97,72,54,30.09,29.90,18,-82,33,0.37
2013-5-24,82,69,62,74,59,-100,95,81,72,30.14,30.04,9,-50,15,0.28
2013-5-25,80,65,64,72,57,-100,97,86,72,30.17,29.99,16,-51,17,0.73
2013-5-26,84,72,65,73,61,-100,97,79,68,30.06,29.88,14,-48,20,0.00
2013-5-27,82,73,70,72,64,-100,91,79,69,29.93,29.73,15,-26,25,0.00
2013-5-28,80,73,71,70,59,-100,87,71,66,29.83,29.65,25,-46,25,0.00
2013-5-29,79,70,63,72,62,-100,97,81,76,29.79,29.63,18,-36,33,0.68
2013-5-30,86,78,69,75,71,66,94,81,66,29.74,29.60,13,6,23,0.01
2013-5-31,89,77,74,77,64,-100,88,72,66,29.76,29.56,13,-47,24,0.00
2013-6-1,82,64,60,73,43,-100,97,64,44,29.99,29.61,14,-132,18,0.06
2013-6-2,76,66,55,61,56,51,97,73,47,30.11,29.96,12,3,16,0.00
2013-6-3,84,68,55,66,54,-100,97,71,55,30.02,29.82,7,-40,13,0.00
2013-6-4,87,67,65,74,47,-100,97,67,62,30.03,29.78,12,-126,18,0.02
2013-6-5,86,70,67,74,58,-100,97,77,64,29.99,29.79,11,-70,18,0.39
2013-6-6,75,64,59,69,51,-100,98,79,67,29.96,29.85,10,-82,14,1.33
2013-6-7,82,65,54,64,49,-100,100,70,45,30.02,29.90,9,-57,10,0.00
2013-6-8,84,79,65,65,64,59,80,60,50,29.93,29.77,11,3,15,0.00
2013-6-9,90,74,64,74,63,-100,96,75,49,29.93,29.80,7,-20,19,0.23
2013-6-10,94,78,67,76,61,-100,90,65,48,29.94,29.84,8,-51,15,0.00
2013-6-11,93,77,71,75,60,-100,85,63,53,29.97,29.87,11,-59,18,0.00
2013-6-12,92,83,73,75,72,68,85,71,53,29.99,29.89,10,3,17,0.00
2013-6-13,96,84,69,79,73,67,93,72,49,30.01,29.86,8,1,10,0.00
2013-6-14,95,79,69,79,66,-100,97,72,51,29.96,29.86,5,-41,9,0.00
2013-6-15,88,76,73,77,65,-100,94,75,64,29.97,29.86,9,-51,14,0.00
2013-6-16,95,79,68,79,63,-100,95,68,52,29.98,29.83,11,-51,13,0.00
2013-6-17,87,70,65,74,55,-100,100,73,62,29.97,29.83,21,-82,22,0.93
2013-6-18,87,73,67,71,61,-100,100,76,52,30.00,29.91,10,-40,12,0.00
2013-6-19,85,72,65,75,62,-100,98,81,70,30.00,29.86,9,-52,15,0.00
2013-6-20,91,80,73,77,67,-100,93,71,54,29.99,29.89,8,-28,17,0.00
2013-6-21,92,80,75,77,66,-100,85,67,53,30.00,29.90,9,-29,16,0.00
2013-6-22,91,79,74,72,61,-100,84,62,50,29.98,29.83,10,-48,18,0.00
2013-6-23,92,83,74,73,70,68,85,67,50,29.93,29.83,12,4,21,0.00
2013-6-24,92,83,75,73,70,68,81,66,52,29.98,29.84,9,4,19,0.00
2013-6-25,93,84,76,76,71,67,79,65,53,29.91,29.76,13,5,19,0.00
2013-6-26,95,85,75,77,72,65,86,66,55,29.89,29.77,11,4,14,0.00
2013-6-27,101,85,71,81,74,66,96,71,45,29.98,29.80,11,2,18,0.00
2013-6-28,96,82,72,74,64,-100,84,59,40,29.97,29.83,12,-29,15,0.00
2013-6-29,91,76,67,69,58,-100,91,62,38,29.93,29.81,8,-40,15,0.00
2013-6-30,85,73,62,65,53,-100,87,55,40,29.97,29.84,14,-39,19,0.00
2013-7-1,84,70,58,63,57,53,89,66,37,30.07,29.97,14,3,18,0.00
2013-7-2,86,68,54,63,49,-100,91,59,33,30.11,30.00,6,-41,13,0.00
2013-7-3,90,70,55,62,48,-100,94,55,31,30.08,29.93,5,-55,8,0.00
2013-7-4,92,74,58,67,54,-100,93,58,31,30.00,29.88,8,-40,10,0.00
2013-7-5,92,77,67,69,58,-100,91,58,39,29.96,29.83,9,-41,13,0.05
2013-7-6,94,79,70,71,61,-100,77,58,41,29.92,29.83,8,-24,17,0.00
2013-7-7,94,78,72,73,57,-100,80,57,43,29.98,29.91,7,-60,12,0.00
2013-7-8,96,77,70,75,62,-100,92,68,46,30.05,29.95,9,-50,15,0.00
2013-7-9,98,83,74,73,62,-100,77,55,40,30.05,29.91,10,-39,14,0.00
2013-7-10,101,84,73,73,60,-100,77,52,35,30.00,29.86,7,-51,15,0.00
2013-7-11,104,82,71,73,59,-100,89,55,31,29.93,29.81,10,-57,15,0.00
2013-7-12,98,85,71,75,71,68,94,66,41,29.95,29.86,11,2,12,0.00
2013-7-13,99,83,72,71,64,-100,89,58,39,29.98,29.85,7,-29,14,0.00
2013-7-14,81,62,62,69,47,-100,97,77,56,30.02,29.88,7,-114,15,0.46
2013-7-15,74,64,62,69,59,-100,98,93,84,30.12,30.00,5,-35,9,0.87
2013-7-16,88,71,69,76,60,-100,99,81,62,30.20,30.10,7,-61,12,0.15
2013-7-17,87,71,70,78,60,-100,98,82,60,30.24,30.14,6,-67,14,0.45
2013-7-18,93,78,68,78,65,-100,98,73,50,30.19,29.99,5,-41,8,0.00
2013-7-19,95,81,70,76,72,69,97,76,46,30.03,29.89,9,1,16,0.00
2013-7-20,95,81,69,74,71,68,97,74,45,29.96,29.81,7,1,13,0.00
2013-7-21,95,79,73,76,62,-100,92,65,48,29.88,29.79,7,-60,10,0.00
2013-7-22,96,80,75,78,63,-100,92,66,51,29.90,29.79,9,-61,14,0.00
2013-7-23,98,82,77,79,65,-100,83,63,50,29.91,29.75,10,-54,12,0.00
2013-7-24,91,68,66,75,46,-100,98,64,51,30.06,29.79,13,-149,29,0.02
2013-7-25,86,76,70,75,66,-100,100,79,65,30.06,29.95,4,-31,10,0.00
2013-7-26,87,69,71,78,52,-100,100,75,70,30.00,29.88,12,-116,18,0.30
2013-7-27,86,73,68,72,62,-100,96,77,58,30.04,29.92,7,-40,11,0.00
2013-7-28,88,74,67,72,62,-100,97,73,56,29.98,29.87,7,-44,13,0.00
2013-7-29,89,77,74,78,66,-100,92,75,65,29.97,29.86,11,-45,17,0.05
2013-7-30,95,79,75,79,63,-100,91,67,55,30.00,29.89,13,-60,16,0.00
2013-7-31,94,79,72,79,68,-100,97,76,58,30.02,29.93,7,-43,14,0.00
2013-8-1,95,80,73,78,65,-100,95,71,50,30.02,29.89,5,-51,9,0.00
2013-8-2,101,84,77,77,64,-100,87,58,37,29.92,29.79,9,-50,12,0.00
2013-8-3,98,83,76,75,61,-100,76,55,44,29.98,29.84,7,-53,12,0.00
2013-8-4,99,82,71,75,62,-100,92,60,41,30.02,29.88,7,-50,12,0.00
2013-8-5,102,85,75,76,64,-100,82,56,36,29.93,29.77,7,-38,15,0.00
2013-8-6,103,83,75,74,54,-100,71,46,32,29.84,29.71,8,-82,16,0.00
2013-8-7,104,86,79,77,64,-100,74,53,36,29.81,29.69,5,-40,11,0.00
2013-8-8,99,79,73,76,59,-100,95,61,41,29.86,29.73,9,-75,23,0.07
2013-8-9,97,78,75,76,60,-100,89,66,46,29.98,29.80,12,-71,15,0.00
2013-8-10,89,75,69,73,61,-100,93,71,52,30.09,29.98,10,-49,14,0.00
2013-8-11,97,77,65,73,57,-100,96,62,40,30.07,29.94,10,-72,12,0.00
2013-8-12,100,78,73,74,57,-100,90,61,37,30.01,29.87,12,-82,17,0.18
2013-8-13,88,72,73,75,58,-100,96,75,59,30.02,29.89,10,-82,13,0.08
2013-8-14,88,73,68,73,59,-100,96,72,55,30.06,29.95,8,-62,12,0.00
2013-8-15,87,70,66,69,54,-100,91,67,55,30.07,29.92,8,-70,11,0.00
2013-8-16,85,67,64,69,51,-100,96,71,53,30.08,29.95,21,-82,33,0.12
2013-8-17,86,69,60,65,51,-100,100,65,48,30.12,30.00,6,-72,12,0.00
2013-8-18,89,72,61,67,53,-100,92,63,42,30.11,29.99,8,-62,15,0.00
2013-8-19,93,74,65,69,54,-100,92,61,38,30.07,29.93,10,-62,15,0.00
2013-8-20,96,75,65,67,50,-100,92,53,33,30.02,29.92,8,-82,12,0.00
2013-8-21,97,75,64,69,49,-100,94,52,29,30.06,29.96,8,-83,14,0.00
2013-8-22,100,83,67,71,65,-100,90,59,34,30.06,29.90,8,-10,13,0.00
2013-8-23,98,80,71,72,61,-100,89,60,39,30.00,29.90,12,-51,17,0.00
2013-8-24,99,80,72,74,60,-100,89,60,36,30.05,29.96,6,-51,11,0.00
2013-8-25,97,76,72,72,51,-100,87,54,39,30.13,30.03,10,-102,15,0.00
2013-8-26,95,75,69,71,53,-100,93,58,37,30.16,30.03,11,-81,15,0.00
2013-8-27,90,70,65,72,50,-100,90,63,53,30.09,29.98,9,-109,15,0.00
2013-8-28,97,77,66,71,57,-100,92,59,37,30.07,29.96,10,-64,13,0.00
2013-8-29,101,80,66,70,55,-100,89,52,31,30.05,29.91,6,-62,11,0.00
2013-8-30,105,80,68,70,52,-100,91,48,26,29.98,29.82,6,-82,10,0.00
2013-8-31,106,82,69,69,48,-100,86,41,23,29.87,29.73,7,-95,13,0.00
2013-9-1,106,78,70,75,51,-100,85,51,25,29.86,29.75,9,-103,19,0.10
2013-9-2,95,74,72,76,51,-100,96,60,45,29.97,29.84,10,-112,14,0.03
2013-9-3,94,72,63,66,46,-100,94,54,29,30.02,29.91,8,-91,17,0.00
2013-9-4,98,74,65,71,50,-100,85,54,35,30.06,29.96,7,-94,10,0.00
2013-9-5,98,77,68,70,53,-100,82,52,30,30.10,29.98,7,-72,11,0.00
2013-9-6,100,76,68,68,47,-100,82,47,28,30.07,29.92,6,-104,9,0.00
2013-9-7,99,76,69,78,49,-100,84,51,33,29.99,29.87,8,-104,17,0.01
2013-9-8,99,77,65,70,47,-100,94,48,29,29.96,29.84,8,-92,14,0.00
2013-9-9,95,76,70,70,47,-100,82,46,31,29.97,29.87,8,-91,17,0.00
2013-9-10,94,75,68,70,48,-100,89,49,30,30.07,29.93,11,-93,16,0.00
2013-9-11,96,72,63,69,45,-100,83,50,36,30.12,29.98,10,-113,14,0.00
2013-9-12,97,74,68,71,52,-100,89,57,39,30.06,29.93,15,-92,19,0.00
2013-9-13,95,74,70,71,55,-100,92,62,41,29.98,29.85,13,-81,19,0.00
2013-9-14,91,73,69,69,49,-100,85,54,40,29.98,29.88,8,-82,16,0.00
2013-9-15,97,74,69,72,48,-100,69,51,38,30.01,29.92,9,-104,15,0.00
2013-9-16,94,75,70,69,48,-100,85,50,38,30.09,29.96,7,-102,17,0.00
2013-9-17,96,72,68,74,48,-100,91,59,35,30.05,29.92,12,-113,15,0.07
2013-9-18,96,74,71,72,46,-100,94,52,37,29.98,29.84,12,-125,19,0.00
2013-9-19,94,75,73,72,52,-100,88,56,42,29.95,29.84,10,-92,17,0.01
2013-9-20,74,60,63,70,43,-100,96,77,79,29.98,29.88,11,-134,14,0.10
2013-9-21,82,57,53,57,27,-100,95,51,25,30.03,29.89,9,-153,14,0.00
2013-9-22,85,61,49,56,34,-100,97,51,27,29.96,29.80,8,-107,11,0.00
2013-9-23,85,61,56,56,33,-100,90,50,34,29.86,29.73,9,-126,16,0.00
2013-9-24,91,64,55,59,31,-100,94,44,20,29.96,29.84,11,-114,17,0.00
2013-9-25,95,66,50,57,32,-100,88,41,22,29.91,29.75,6,-115,11,0.00
2013-9-26,95,71,60,62,38,-100,75,42,31,29.85,29.76,14,-116,20,0.00
2013-9-27,90,70,66,70,46,-100,82,56,49,29.90,29.79,13,-112,24,0.00
2013-9-28,79,59,59,74,41,-100,97,72,70,30.08,29.81,12,-136,17,1.03
2013-9-29,79,57,52,56,32,-100,97,58,34,30.09,29.93,8,-123,12,0.00
2013-9-30,86,60,48,60,32,-100,98,52,31,29.95,29.80,9,-136,11,0.00
2013-10-1,89,65,54,68,44,-100,97,62,40,29.92,29.84,12,-103,17,0.00
2013-10-2,87,68,69,72,48,-100,95,66,55,29.95,29.82,8,-122,17,0.00
2013-10-3,90,71,72,73,48,-100,89,60,51,29.88,29.74,13,-123,21,0.00
2013-10-4,88,71,72,71,51,-100,88,63,53,29.86,29.77,12,-100,20,0.00
2013-10-5,77,51,44,68,27,-100,87,59,40,30.13,29.81,17,-143,21,0.03
2013-10-6,71,49,40,41,36,30,92,67,22,30.11,30.06,4,0,7,0.00
2013-10-7,80,52,41,45,17,-100,88,42,18,30.20,30.09,7,-145,9,0.00
2013-10-8,80,55,43,52,24,-100,94,48,27,30.13,29.99,9,-146,13,0.00
2013-10-9,83,57,47,56,28,-100,97,51,35,30.07,29.96,9,-154,14,0.00
2013-10-10,83,75,60,64,59,55,89,59,44,30.04,29.84,12,5,20,0.00
2013-10-11,87,66,64,69,45,-100,91,63,51,29.87,29.77,10,-122,20,0.00
2013-10-12,84,67,65,71,47,-100,97,66,51,30.08,29.84,10,-112,13,0.00
2013-10-13,74,57,59,69,38,-100,100,74,81,30.21,30.08,5,-166,9,0.00
2013-10-14,70,51,65,70,25,-100,98,71,84,30.15,29.89,8,-250,14,1.02
2013-10-15,71,43,52,70,16,-100,98,68,81,30.12,29.88,13,-250,18,0.33
2013-10-16,63,45,44,53,19,-100,98,60,51,30.18,30.06,10,-173,14,0.01
2013-10-17,59,32,38,47,1,-100,98,63,64,30.15,30.09,3,-288,8,0.00
2013-10-21,50,43,39,42,39,37,93,87,75,30.17,30.11,0,0,0,0.00
2013-10-22,76,56,37,49,44,35,97,69,37,30.19,30.03,8,1,13,0.00
2013-10-23,79,52,43,52,23,-100,97,52,33,30.15,30.01,6,-167,13,0.00
2013-10-24,67,48,48,47,20,-100,84,52,41,30.34,30.03,10,-156,15,0.00
2013-10-25,64,45,42,44,20,-100,80,54,48,30.45,30.27,6,-146,16,0.00
2013-10-26,62,48,49,59,31,-100,98,76,77,30.26,30.07,4,-145,9,0.86
2013-10-27,67,48,53,59,29,-100,98,76,75,30.15,30.01,5,-174,8,0.01
2013-10-28,68,59,46,65,57,46,98,95,86,30.11,30.01,7,1,11,0.01
2013-10-29,76,70,66,70,67,64,94,88,80,30.05,29.93,12,5,17,0.01
2013-10-30,71,68,64,69,66,64,98,94,88,29.97,29.76,13,5,19,0.11
2013-10-31,68,62,51,66,53,43,98,73,43,29.86,29.63,10,3,19,0.02
2013-11-1,74,56,40,52,43,39,98,68,35,30.13,29.84,10,2,18,0.00
2013-11-2,64,50,39,41,36,32,86,64,30,30.35,30.13,12,2,16,0.00
2013-11-3,64,50,33,45,38,31,96,67,43,30.24,29.99,15,3,20,0.00
2013-11-4,64,57,53,57,52,45,96,83,68,30.08,29.98,11,4,19,0.17
2013-11-5,66,62,58,65,61,57,98,97,96,30.06,29.93,10,3,15,0.67
2013-11-6,66,46,33,66,40,32,98,82,52,30.42,29.94,14,6,20,0.23
2013-11-7,64,46,31,43,36,30,98,72,39,30.54,30.41,4,0,8,0.00
2013-11-8,65,52,34,43,38,33,96,63,32,30.40,30.13,11,3,20,0.00
2013-11-9,69,58,47,53,48,42,83,69,52,30.25,30.10,11,2,17,0.00
2013-11-10,65,56,45,53,49,43,94,78,63,30.37,30.25,3,0,7,0.00
2013-11-11,73,58,43,58,52,42,96,82,58,30.37,30.18,17,2,17,0.00
2013-11-12,51,38,22,48,25,16,89,63,31,30.76,30.37,22,8,26,0.00
2013-11-13,52,34,17,26,22,15,93,66,34,30.76,30.40,9,1,11,0.00
2013-11-14,51,43,30,39,30,24,82,61,46,30.40,30.02,14,3,16,0.00
2013-11-15,68,56,43,54,47,39,95,74,49,30.02,29.81,10,2,13,0.00
2013-11-16,76,66,57,64,60,55,92,80,59,29.82,29.59,14,6,23,0.05
2013-11-17,79,68,55,65,50,26,90,57,26,30.06,29.63,12,4,19,0.00
2013-11-18,69,57,47,38,30,22,59,38,24,30.24,30.06,10,2,14,0.00
2013-11-19,63,56,51,40,35,30,64,46,30,30.20,30.01,10,3,21,0.00
2013-11-20,61,55,48,54,41,32,79,59,48,30.01,29.87,10,4,18,0.00
2013-11-21,67,55,33,65,52,31,97,91,80,30.32,29.93,23,6,28,0.12
2013-11-22,33,31,29,31,28,26,94,90,85,30.57,30.33,18,8,24,0.00
2013-11-23,37,33,30,31,28,23,94,83,62,30.66,30.55,12,3,18,0.23
2013-11-24,30,29,27,25,21,16,86,74,61,30.69,30.39,11,3,16,0.00
2013-11-25,34,31,28,32,29,25,95,92,87,30.41,30.25,5,1,7,0.01
2013-11-26,48,39,32,34,29,22,94,71,45,30.45,30.24,15,6,22,0.01
2013-11-27,42,30,22,21,14,11,80,54,31,30.53,30.39,13,2,15,0.00
2013-11-28,55,37,20,29,23,16,86,60,32,30.49,30.38,5,1,10,0.00
2013-11-29,59,40,22,36,29,20,96,70,35,30.53,30.36,8,2,15,0.00
2013-11-30,66,52,41,50,45,35,92,78,56,30.36,30.14,14,3,14,0.00
2013-12-1,62,51,41,53,48,40,97,88,71,30.14,29.92,7,1,10,0.00
2013-12-2,66,46,36,54,42,35,98,90,51,29.92,29.70,3,0,5,0.01
2013-12-3,68,51,42,53,44,39,98,82,37,29.70,29.52,8,1,11,0.01
2013-12-4,54,44,33,43,36,24,98,76,56,30.02,29.55,19,5,20,0.00
2013-12-5,33,26,21,24,18,16,89,74,59,30.30,30.03,19,9,25,0.00
2013-12-6,25,20,16,18,15,6,91,80,64,30.63,30.27,15,7,20,0.00
2013-12-7,22,17,11,15,9,3,77,70,65,30.70,30.34,10,4,16,0.00
2013-12-8,36,26,20,26,21,15,94,83,65,30.35,30.08,7,1,9,0.01
2013-12-9,30,24,17,23,19,13,93,80,65,30.51,30.25,11,3,14,0.00
2013-12-10,40,23,8,19,14,6,91,70,42,30.58,30.37,6,1,12,0.01
2013-12-11,42,28,15,27,20,13,93,76,51,30.68,30.36,11,2,16,0.02
2013-12-12,45,31,16,30,24,14,93,78,56,30.69,30.33,7,1,12,0.00
2013-12-13,46,40,36,42,37,31,96,89,76,30.31,29.81,11,3,17,0.26
2013-12-14,41,35,25,41,31,22,97,84,64,30.36,29.85,17,5,24,0.00
2013-12-15,59,39,23,34,28,21,93,67,35,30.38,30.23,8,1,10,0.00
2013-12-16,67,42,24,37,30,22,95,68,31,30.25,30.15,6,1,8,0.00
2013-12-17,71,46,26,40,31,25,96,64,24,30.33,30.21,8,1,10,0.00
2013-12-18,70,49,28,47,36,24,91,64,30,30.30,29.96,13,3,19,0.00
2013-12-19,69,60,53,56,53,47,89,79,62,29.96,29.70,16,5,23,0.00
2013-12-20,60,40,29,57,37,27,96,90,81,29.94,29.72,14,4,18,0.04
2013-12-21,36,33,31,35,32,30,97,96,95,29.87,29.63,5,1,10,0.10
2013-12-22,35,29,18,32,25,16,97,84,70,30.47,29.87,13,4,18,0.00
2013-12-23,39,24,14,29,21,12,95,88,62,30.66,30.45,8,1,11,0.00
2013-12-24,48,33,20,34,27,18,94,80,58,30.65,30.27,10,2,18,0.00
2013-12-25,41,32,22,35,29,21,96,89,77,30.49,30.30,10,2,14,0.00
2013-12-26,54,34,21,39,28,20,97,79,41,30.51,30.38,4,0,10,0.01
2013-12-27,58,38,21,33,27,19,96,67,32,30.49,30.37,5,1,10,0.00
2013-12-28,60,44,26,45,35,24,93,73,54,30.36,29.98,8,2,13,0.00
2013-12-29,46,32,25,40,26,16,95,79,65,30.37,29.97,20,6,23,0.00
2013-12-30,41,26,13,19,14,10,87,63,39,30.47,30.33,6,1,8,0.00
2013-12-31,55,35,16,28,22,13,90,64,34,30.49,30.22,12,2,15,0.00
2014-1-1,66,43,24,41,31,16,89,65,37,30.32,29.88,13,3,23,0.00
2014-1-2,39,25,17,19,15,11,81,67,44,30.55,30.32,14,4,20,0.00